Location: Bletchingley
(51.2333°N, 0.1000°W)
Time: 15:29:19
(UTC+00:00)

Cosmos 2266 Rocket - Pass Details

Date: 24 January 2021
Orbit: 934 x 1008 km, 82.9° (Epoch: 05 March)

Event Time Altitude Azimuth Distance (km) Brightness Sun altitude
Rises 21:01:11 0° 216° (SW) 3,683 7.2 -40.6°
Enters shadow 21:02:57 - 221° (SW) 3,064 6.8 -40.9°
Exits shadow 21:16:25 - 2° (N) 3,072 6.8 -42.8°
Sets 21:18:02 0° 6° (N) 3,636 7.2 -43.0°
